Prestonsburg, KY

3:29 PM EDT on September 22, 2017 (GMT -0400)
Prestonsburg

Weather History for KK22 - March, 2013

Change the Weather History Date:

Wednesday, March 6, 2013

  Actual Average (KJKL) Record (KJKL)
Temperature  
Mean Temperature 30 °F -  
Max Temperature 32 °F 49 °F 77 °F (1983)
Min Temperature 28 °F 31 °F 8 °F (2015)
Degree Days  
Heating Degree Days 35    
Moisture  
Dew Point 29 °F    
Average Humidity 93    
Maximum Humidity 98    
Minimum Humidity 83    
Precipitation  
Precipitation 0.00 in - - ()
Sea Level Pressure  
Sea Level Pressure 29.96 in    
Wind  
Wind Speed 10 mph (West)    
Max Wind Speed 17 mph    
Max Gust Speed 30 mph    
Visibility 4 miles    
Events Snow    
Averages and records for this station are not official NWS values.
T = Trace of Precipitation, MM = Missing Value Source: NWS Daily Summary

Daily Weather History Graph

Daily Weather History Graph

Search for Another Location

Airport or City:

Trip Planner

Search our weather history database for the weather conditions in past years. The results will help you decide how hot, cold, wet, or windy it might be!

Date:

Astronomy

Mar. 06, 2013 Rise Set
Actual Time 6:54 AM EST 6:29 PM EST
Civil Twilight 6:28 AM EST 6:55 PM EST
Nautical Twilight 5:58 AM EST 7:26 PM EST
Astronomical Twilight 5:27 AM EST 7:56 PM EST
Moon 2:58 AM EST (3/6) 1:14 PM EST (3/6)
Length of Visible Light 12h 27m
Length of Day
11h 34m
Waning Crescent, 30% of the Moon is Illuminated
Mar 6
Waning Crescent
Mar 11
New
Mar 19
First Quarter
Mar 27
Full
Apr 3
Last Quarter

Hourly Weather History & Observations

Time (EST) Temp. Windchill Dew Point Humidity Pressure Visibility Wind Dir Wind Speed Gust Speed Precip Events Conditions
12:15 AM 32.0 °F 21.2 °F 28.8 °F 88% 29.71 in 5.0 mi West 16.1 mph 29.9 mph N/A Snow Light Snow
12:35 AM 31.8 °F 21.0 °F 28.8 °F 88% 29.71 in 5.0 mi West 16.1 mph 25.3 mph N/A Snow Light Snow
12:55 AM 31.6 °F 23.1 °F 28.4 °F 88% 29.70 in 5.0 mi West 10.4 mph 20.7 mph N/A Snow Light Snow
1:15 AM 31.1 °F 19.7 °F 28.9 °F 92% 29.70 in 4.0 mi WSW 17.3 mph 27.6 mph N/A Snow Light Snow
1:35 AM 31.1 °F 22.4 °F 28.4 °F 90% 29.71 in 4.0 mi West 10.4 mph 17.3 mph N/A Snow Light Snow
1:55 AM 30.9 °F 19.8 °F 27.3 °F 86% 29.71 in 3.0 mi West 16.1 mph 27.6 mph N/A Snow Light Snow
2:15 AM 30.4 °F 21.0 °F 27.1 °F 88% 29.72 in 4.0 mi West 11.5 mph 21.9 mph N/A Snow Light Snow
2:35 AM 30.2 °F 21.9 °F 26.6 °F 86% 29.72 in 5.0 mi West 9.2 mph 19.6 mph N/A Snow Light Snow
2:55 AM 30.2 °F 19.8 °F 26.4 °F 86% 29.72 in 5.0 mi West 13.8 mph 17.3 mph N/A Snow Light Snow
3:15 AM 29.7 °F 19.1 °F 26.2 °F 87% 29.72 in 3.0 mi West 13.8 mph 26.5 mph N/A Snow Light Snow
3:35 AM 29.3 °F 19.1 °F 26.6 °F 90% 29.72 in 2.5 mi West 12.7 mph 20.7 mph N/A Snow Light Snow
3:55 AM 29.1 °F 18.9 °F 27.0 °F 92% 29.71 in 3.0 mi WSW 12.7 mph 19.6 mph N/A Snow Light Snow
4:15 AM 29.1 °F 22.1 °F 26.6 °F 90% 29.71 in 4.0 mi West 6.9 mph 19.6 mph N/A Snow Light Snow
4:35 AM 28.9 °F 19.2 °F 26.4 °F 90% 29.72 in 3.0 mi WSW 11.5 mph 17.3 mph N/A Snow Light Snow
4:55 AM 28.9 °F 19.8 °F 26.4 °F 90% 29.73 in 4.0 mi WSW 10.4 mph 16.1 mph N/A Snow Light Snow
5:15 AM 29.1 °F 21.3 °F 26.4 °F 90% 29.73 in 5.0 mi WSW 8.1 mph 17.3 mph N/A Snow Light Snow
5:35 AM 29.1 °F 19.4 °F 26.4 °F 90% 29.74 in 7.0 mi West 11.5 mph 17.3 mph N/A Snow Light Snow
5:55 AM 29.3 °F 23.2 °F 26.2 °F 88% 29.75 in 10.0 mi West 5.8 mph 17.3 mph N/A Snow Light Snow
6:15 AM 29.5 °F 21.8 °F 26.1 °F 87% 29.75 in 10.0 mi West 8.1 mph 16.1 mph N/A   Overcast
6:35 AM 29.8 °F 19.8 °F 25.7 °F 85% 29.76 in 10.0 mi West 12.7 mph 17.3 mph N/A   Overcast
6:55 AM 30.2 °F 23.4 °F 25.7 °F 83% 29.78 in 10.0 mi West 6.9 mph 18.4 mph N/A   Overcast
7:15 AM 30.2 °F 21.9 °F 25.7 °F 83% 29.78 in 10.0 mi West 9.2 mph - N/A   Overcast
7:35 AM 30.2 °F 20.2 °F 25.7 °F 83% 29.80 in 10.0 mi West 12.7 mph - N/A   Overcast
7:55 AM 30.2 °F 21.9 °F 26.1 °F 85% 29.82 in 10.0 mi West 9.2 mph 17.3 mph N/A   Overcast
8:15 AM 30.2 °F 23.4 °F 26.4 °F 86% 29.83 in 10.0 mi West 6.9 mph - N/A   Overcast
8:35 AM 29.7 °F 22.0 °F 27.5 °F 92% 29.85 in 1.8 mi West 8.1 mph - N/A Snow Light Snow
8:55 AM 30.0 °F 23.2 °F 27.7 °F 91% 29.86 in 7.0 mi West 6.9 mph - N/A Snow Light Snow
9:15 AM 30.2 °F 21.9 °F 27.5 °F 90% 29.87 in 7.0 mi West 9.2 mph 17.3 mph N/A Snow Light Snow
9:35 AM 30.2 °F 23.4 °F 27.3 °F 89% 29.89 in 5.0 mi West 6.9 mph - N/A Snow Light Snow
9:55 AM 30.2 °F 21.9 °F 27.9 °F 91% 29.91 in 4.0 mi West 9.2 mph 16.1 mph N/A   Overcast
10:15 AM 30.2 °F 22.6 °F 28.2 °F 92% 29.92 in 3.0 mi WNW 8.1 mph 17.3 mph N/A   Overcast
10:35 AM 30.2 °F 21.3 °F 28.4 °F 93% 29.94 in 3.0 mi West 10.4 mph - N/A   Overcast
10:55 AM 30.2 °F 21.9 °F 28.9 °F 95% 29.95 in 2.0 mi West 9.2 mph - N/A   Overcast
11:35 AM 30.2 °F 22.6 °F 29.1 °F 96% 29.97 in 2.0 mi West 8.1 mph - N/A   Overcast
11:55 AM 30.4 °F 21.5 °F 29.3 °F 96% 29.98 in 1.8 mi West 10.4 mph 16.1 mph N/A   Overcast
12:15 PM 30.6 °F 21.8 °F 29.3 °F 95% 29.99 in 2.5 mi West 10.4 mph 17.3 mph N/A   Overcast
12:35 PM 30.6 °F 23.1 °F 29.3 °F 95% 30.00 in 3.0 mi West 8.1 mph - N/A   Overcast
12:55 PM 30.6 °F 21.8 °F 29.3 °F 95% 30.01 in 4.0 mi West 10.4 mph - N/A   Overcast
1:15 PM 30.6 °F 23.8 °F 29.3 °F 95% 30.02 in 4.0 mi WNW 6.9 mph - N/A   Overcast
1:35 PM 30.7 °F 23.3 °F 29.3 °F 94% 30.03 in 5.0 mi West 8.1 mph - N/A   Overcast
1:55 PM 30.6 °F 22.4 °F 29.1 °F 94% 30.03 in 5.0 mi WNW 9.2 mph 17.3 mph N/A   Overcast
2:15 PM 30.6 °F 21.2 °F 29.1 °F 94% 30.04 in 5.0 mi WNW 11.5 mph - N/A   Overcast
2:35 PM 30.6 °F 23.1 °F 29.3 °F 95% 30.05 in 5.0 mi NW 8.1 mph - N/A   Overcast
2:55 PM 30.7 °F 24.9 °F 29.7 °F 96% 30.07 in 4.0 mi WNW 5.8 mph - N/A   Overcast
3:15 PM 30.7 °F 24.1 °F 29.7 °F 96% 30.08 in 4.0 mi NW 6.9 mph - N/A   Overcast
3:35 PM 30.7 °F 24.1 °F 29.8 °F 96% 30.09 in 4.0 mi NW 6.9 mph - N/A   Overcast
3:55 PM 30.9 °F 25.2 °F 30.0 °F 96% 30.10 in 4.0 mi WNW 5.8 mph - N/A   Overcast
4:15 PM 30.9 °F 22.8 °F 30.0 °F 96% 30.11 in 2.5 mi WNW 9.2 mph - N/A   Overcast
4:35 PM 30.9 °F 25.2 °F 30.2 °F 97% 30.12 in 2.0 mi West 5.8 mph - N/A   Overcast
4:55 PM 30.9 °F 25.2 °F 30.2 °F 97% 30.12 in 2.0 mi WNW 5.8 mph - N/A   Overcast
5:15 PM 30.7 °F 24.9 °F 30.2 °F 98% 30.13 in 1.8 mi WNW 5.8 mph - N/A   Overcast
5:35 PM 30.7 °F 24.9 °F 30.2 °F 98% 30.15 in 2.0 mi WNW 5.8 mph - N/A   Overcast
5:55 PM 30.9 °F 24.3 °F 30.2 °F 97% 30.15 in 1.8 mi West 6.9 mph - N/A   Overcast
6:15 PM 30.7 °F 24.1 °F 30.2 °F 98% 30.16 in 1.8 mi West 6.9 mph - N/A   Overcast
6:35 PM 30.7 °F 24.9 °F 30.2 °F 98% 30.16 in 1.8 mi West 5.8 mph - N/A   Overcast
6:55 PM 30.7 °F 24.9 °F 30.0 °F 97% 30.17 in 2.0 mi West 5.8 mph - N/A   Overcast
7:15 PM 30.7 °F 26.0 °F 30.2 °F 98% 30.19 in 3.0 mi West 4.6 mph - N/A   Overcast
7:35 PM 30.7 °F 24.1 °F 30.2 °F 98% 30.19 in 3.0 mi West 6.9 mph - N/A   Overcast
7:55 PM 30.7 °F 24.9 °F 30.0 °F 97% 30.20 in 3.0 mi WNW 5.8 mph - N/A   Overcast
8:15 PM 30.7 °F 24.9 °F 30.0 °F 97% 30.20 in 3.0 mi WNW 5.8 mph - N/A   Overcast
8:35 PM 30.7 °F 27.3 °F 30.0 °F 97% 30.20 in 4.0 mi WNW 3.5 mph - N/A   Overcast
8:55 PM 30.7 °F 24.9 °F 30.0 °F 97% 30.21 in 4.0 mi WNW 5.8 mph - N/A   Overcast
9:35 PM 30.7 °F 24.1 °F 29.8 °F 96% 30.21 in 5.0 mi WNW 6.9 mph - N/A   Overcast
9:55 PM 30.9 °F 27.5 °F 29.8 °F 96% 30.22 in 5.0 mi WNW 3.5 mph - N/A   Overcast
10:15 PM 30.9 °F 26.2 °F 29.8 °F 96% 30.21 in 5.0 mi West 4.6 mph - N/A   Overcast
10:35 PM 30.9 °F 26.2 °F 29.8 °F 96% 30.22 in 5.0 mi WNW 4.6 mph - N/A   Overcast
10:55 PM 30.9 °F 27.5 °F 29.8 °F 96% 30.22 in 5.0 mi WNW 3.5 mph - N/A   Overcast
11:15 PM 30.9 °F 26.2 °F 29.7 °F 95% 30.22 in 7.0 mi WNW 4.6 mph - N/A   Overcast
11:35 PM 30.9 °F 26.2 °F 29.7 °F 95% 30.22 in 5.0 mi West 4.6 mph - N/A   Overcast
11:55 PM 30.9 °F 26.2 °F 29.8 °F 96% 30.22 in 5.0 mi WNW 4.6 mph - N/A   Overcast